Weather Roundup
Issued by NWS Chicago, IL

Home | Current Version | Previous Version | Text Only | Print | Product List | Glossary On
Versions: 1 2 3 4 5 6 7 8 9 10 11 12 13 14 15 16 17 18 19 20 21 22 23 24 25 26 27 28 29 30 31 32 33 34 35 36 37 38 39 40 41 42 43 44 45 46 47 48 49 50
000
NZUS59 KLOT 251809
HRRLOT

CHICAGO AREA WEATHER ROUNDUP
NATIONAL WEATHER SERVICE CHICAGO/ROMEOVILLE IL
100 PM CDT THU AUG 25 2016

NOTE: "FAIR" INDICATES FEW OR NO CLOUDS BELOW 12,000 FEET WITH NO
SIGNIFICANT WEATHER AND/OR OBSTRUCTIONS TO VISIBILITY.

* THESE STATIONS ARE NOT UNDER NWS QUALITY CONTROL. THEY ALSO MAY NOT
  REPORT WEATHER SUCH AS PRECIPITATION OR FOG.

ILZ005-006-012>014-019>023-251900-
NORTHEAST ILLINOIS

CITY           SKY/WX    TMP DP  RH WIND       PRES   REMARKS
OHARE          PTSUNNY   79  67  66 W5        30.04S HX  81
6HR MIN TEMP:  72; 6HR MAX TEMP:  80;

MIDWAY         CLOUDY    79  69  71 W5        30.04S HX  81
6HR MIN TEMP:  73; 6HR MAX TEMP:  79;

AURORA         MOSUNNY   81  68  64 W3        30.06R HX  84
6HR MIN TEMP:  72; 6HR MAX TEMP:  82;

LANSING*       CLOUDY    77  72  85 NW7       30.05R
JOLIET*        MOSUNNY   80  71  73 W6        30.06S HX  84
WAUKEGAN       MOSUNNY   79  64  60 SW3       30.03F HX  81
6HR MIN TEMP:  69; 6HR MAX TEMP:  81;

DUPAGE AIRPORT MOSUNNY   82  67  60 MISG      30.05R HX  84
6HR MIN TEMP:  71; 6HR MAX TEMP:  82;

WHEELING       PTSUNNY   81  65  58 NW6       30.04F HX  83
6HR MIN TEMP:  72; 6HR MAX TEMP:  82;

KANKAKEE*      CLOUDY    79  71  77 W8        30.07S HX  82
MORRIS*        MOSUNNY   80  71  74 W3        30.04S HX  83
LEWIS AIRPORT* PTSUNNY   79  68  70 W6        30.05S HX  81
NORTHERLY ISL    N/A     71  66  84 NE5         N/A
$$

WIZ051-052-058>065-066-070>072-251900-
SOUTHEAST WISCONSIN

CITY           SKY/WX    TMP DP  RH WIND       PRES   REMARKS
MILWAUKEE      PTSUNNY   81  58  45 NW6       30.04R HX  81
6HR MIN TEMP:  71; 6HR MAX TEMP:  83; 6HR PCP: TRACE;

KENOSHA*       CLOUDY    79  67  66 NW6       30.04F HX  81
RACINE*        CLOUDY    79  63  57 NW6       30.05S HX  80
BURLINGTON     CLOUDY    79  58  48 NW6       30.05S HX  80
WAUKESHA       SUNNY     75  59  57 W8        30.06R
$$

INZ001>003-010>013-019-020-251900-
NORTHWEST INDIANA

CITY           SKY/WX    TMP DP  RH WIND       PRES   REMARKS
GARY*          CLOUDY    77  72  83 N7        30.05S
MICHIGAN CITY* NOT AVBL
RENSSELAER*    NOT AVBL
VALPARAISO     CLOUDY    78  70  76 W9        30.05S HX  80
$$

LMZ740>746-251900-
SOUTHERN LAKE MICHIGAN

STATION/POSITION TIME  SKY/WX   TEMP WIND        PRES    VSBY
                                AIR  DIR/SP/G
                 (UTC)          (F)  (DEG/KT/KT) (MB)    (MI)
HARRISON CRIB    1700            72  350/  5/  5   N/A
BURNHAM HARBOR   1800            72   CALM  /  7   N/A
CALUMET HARBOR   1700            72  330/  5/  9 1017.0R
BURNS HARBOR     1716            73  340/  8/ 14 1017.6R
MICHIGAN CITY    1700            73  250/ 14/ 16   N/A
$$

ABBREVIATIONS USED IN REMARKS
   TC - TEMPERATURE IN CELSIUS
  WCI - WIND CHILL INDEX
   HX - HEAT INDEX
  VSB - VISIBILITY
$$



USA.gov is the U.S. government's official web portal to all federal, state and local government web resources and services.